Powrót do katalogu

BLUEBON

AktywnyNaukaSSO
NORAD 62688·PAYLOAD·🇵🇱 Poland

Wystrzelony Jan 14, 2025 z Vandenberg Space Force Base

Loading…

Następne Przeloty (najbliższe 24 godziny)

TLE

ŚwieżeSource: Space-Track

Epoka: Sep 13, 2026, 18:56 UTC

1 62688U 25009CH  26256.78908112  .00005926  00000-0  19474-3 0  9993
2 62688  97.3943 339.6699 0002346  60.3266 299.8209 15.31933826 92539

Śledź BLUEBON w czasie rzeczywistym z AllMySat

Download on the App Store